Regional Weather Roundup
Issued by NWS

Home | Current Version | Previous Version | Text Only | Print | Product List | Glossary On
Versions: 1 2 3 4 5 6 7 8 9 10 11 12 13 14 15 16 17 18 19 20 21 22 23 24 25 26 27 28 29 30 31 32 33 34 35 36 37 38 39 40 41 42 43 44 45 46 47 48 49 50
000
ASUS45 KCYS 010610
RWRWY

WYOMING REGIONAL WEATHER ROUNDUP
NATIONAL WEATHER SERVICE CHEYENNE WY
1200 AM MDT MON MAY 01 2017

NOTE:  "FAIR" INDICATES FEW OR NO CLOUDS BELOW 12,000 FEET
WITH NO SIGNIFICANT WEATHER AND/OR OBSTRUCTIONS TO VISIBILITY.

WYZ001-010700-
YELLOWSTONE NATIONAL PARK

CITY           SKY/WX    TMP DP  RH WIND       PRES   REMARKS
LK YELLOWSTONE   N/A     29  29 100 S3        30.05S
6HR MIN TEMP:  29; 6HR MAX TEMP:  40;

W YELLOWSTONE  NOT AVBL

$$
WYZ002>013-054>058-071-098>099-010700-
NORTHERN WYOMING

CITY           SKY/WX    TMP DP  RH WIND       PRES   REMARKS
JACKSON        CLOUDY    37  36  93 SE9       30.02S WCI  31
CODY           FAIR      46  34  62 CALM      29.96S
GREYBULL       CLOUDY    52  35  52 N12G29    29.90S
6HR MIN TEMP:  52; 6HR MAX TEMP:  62;

WORLAND        CLOUDY    45  39  79 S3        29.90S
6HR MIN TEMP:  42; 6HR MAX TEMP:  61;

SHERIDAN       CLOUDY    47  38  71 NW12      29.92R
6HR MIN TEMP:  44; 6HR MAX TEMP:  58; 6HR PCP: TRACE;

BUFFALO        FAIR      46  32  58 NW10      29.92S
6HR MIN TEMP:  42; 6HR MAX TEMP:  55;

GILLETTE       FAIR      39  33  79 W14       29.88F WCI  31
6HR MIN TEMP:  37; 6HR MAX TEMP:  56;

HULETT         FAIR      39  30  70 S7        29.88S WCI  34
NEWCASTLE      FAIR      37  27  65 N3        29.87S

$$
WYZ014>020-022>026-101>103-010700-
CENTRAL WYOMING

CITY           SKY/WX    TMP DP  RH WIND       PRES   REMARKS
BIG PINEY      MIX PCPN  37  31  78 N9        30.07S WCI  30
6HR MIN TEMP:  32; 6HR MAX TEMP:  48; 6HR PCP: TRACE;

PINEDALE       LGT RAIN  37  32  81 W3        30.06S
DUBOIS         CLOUDY    37  28  70 NW8       29.98F WCI  31
LANDER         FAIR      41  28  60 SW5       29.94F
6HR MIN TEMP:  41; 6HR MAX TEMP:  52; 6HR PCP: TRACE;

RIVERTON       FAIR      44  30  57 NW16      29.95F
6HR MIN TEMP:  41; 6HR MAX TEMP:  55;

CASPER         FAIR      36  31  82 W8        29.93S WCI  30
6HR MIN TEMP:  34; 6HR MAX TEMP:  54;

DOUGLAS        FAIR      35  30  82 N5        29.92S WCI  31
6HR MIN TEMP:  34; 6HR MAX TEMP:  56;


$$
WYZ021-027>030-104>119-010700-
SOUTHERN WYOMING

CITY           SKY/WX    TMP DP  RH WIND       PRES   REMARKS
EVANSTON       CLOUDY    40  29  64 W9        30.12S WCI  34
6HR MIN TEMP:  38; 6HR MAX TEMP:  45;

KEMMERER         N/A     36  30  80 W21       30.08S WCI  24
FORT BRIDGER   FAIR      37  28  70 W10       30.12S WCI  30
ROCK SPRINGS   MOCLDY    40  28  62 W10       30.06R WCI  33
6HR MIN TEMP:  40; 6HR MAX TEMP:  51;

DIXON          DRIZZLE   44  31  60 W6        30.07F
RAWLINS        CLOUDY    41  28  60 W24G33    29.98F
6HR MIN TEMP:  40; 6HR MAX TEMP:  53;

SARATOGA       MOCLDY    39  30  70 W15       30.01F WCI  31
LARAMIE        MOCLDY    39  28  64 NW21      29.96S WCI  29
6HR MIN TEMP:  33; 6HR MAX TEMP:  48;

CHEYENNE       FAIR      41  23  48 N12         N/A
6HR MIN TEMP:  41; 6HR MAX TEMP:  53;

TORRINGTON     FAIR      38  29  70 NW8       29.86S WCI  32
6HR MIN TEMP:  38; 6HR MAX TEMP:  59;

PINE BLUFFS    FAIR      32  28  86 NW10      29.89R WCI  24

$$



USA.gov is the U.S. government's official web portal to all federal, state and local government web resources and services.